STARLINK-35248

Last updated on Tue Oct 14 2025 00:02:05 GMT+0000 (Coordinated Universal Time)

1 65598U 25207G 25286.58341435 -.01528779 00000+0 -36459-1 0 9993 2 65598 97.6038 350.0831 0001606 59.9906 1.6106 15.44582839 5984

Satellite not in orbit

STARLINK-35248